Wind_Speed
5 5 4 4 4 5 5 5 6 6 6 6 6 6 6 6 6 6 5 5 5 5 5 6 5 4 5 4 4 4 3 3 3 2 2 3 4 4 4 4 5 6 6 6 6 6 7 7 7
5 5 5 5 5 5 5 6 6 6 7 7 7 7 6 6 6 6 6 5 6 6 6 5 5 5 5 5 5 4 4 4 4 3 3 3 4 5 5 5 5 6 6 6 7 7 7 8 8
5 5 5 6 6 6 6 6 6 6 6 6 6 6 6 6 6 6 6 6 6 6 6 5 5 5 5 5 5 5 4 4 4 4 4 4 4 5 5 5 5 6 6 6 7 8 8 9 9
6 6 6 6 6 6 6 6 5 6 6 6 6 5 6 6 6 6 6 6 6 6 6 6 5 5 5 6 5 5 5 5 5 5 5 4 5 5 6 6 6 6 6 6 7 8 8 9 9
6 6 6 6 6 6 7 7 6 6 6 6 6 5 6 6 6 6 6 6 6 6 6 5 5 5 5 6 6 5 5 5 5 5 5 5 5 6 6 6 7 7 7 7 7 7 8 9 9
7 7 7 7 7 7 7 7 7 7 6 6 6 6 6 6 6 6 6 6 5 6 6 5 5 5 6 6 6 5 5 5 5 5 6 6 6 6 6 7 8 8 8 7 8 8 9 9 9
7 7 8 8 7 8 8 8 7 7 7 7 7 6 6 6 6 6 6 6 6 6 6 6 5 6 6 6 6 6 6 5 5 6 6 6 7 7 6 7 7 8 8 8 8 9 9 10 10
8 8 9 9 8 8 8 9 8 8 8 7 7 7 7 7 7 7 7 7 6 6 6 6 6 7 7 7 7 6 6 6 6 7 7 7 7 7 8 8 8 8 9 9 9 9 10 10 10
9 9 9 9 9 9 9 9 9 9 8 8 8 8 8 8 8 8 8 8 7 7 7 7 7 7 7 7 7 7 7 7 7 7 7 8 8 8 8 8 8 8 8 9 10 10 10 10 10
9 9 9 9 10 10 9 9 9 9 8 8 8 9 9 9 8 9 9 9 8 8 7 7 7 7 7 7 7 7 8 8 8 7 7 8 8 8 8 8 8 8 8 9 9 10 10 10 10
8 9 9 10 10 10 10 10 10 9 9 9 9 9 9 9 9 9 10 9 9 9 8 8 8 8 8 8 8 8 8 8 8 8 8 8 8 8 8 8 8 9 9 9 10 10 9 10 10
8 8 9 10 10 11 11 10 10 10 10 10 10 10 9 9 10 10 10 10 10 9 9 9 9 9 9 9 8 8 8 8 8 8 8 8 8 8 9 9 9 10 10 10 10 10 10 10 10
8 8 8 9 10 10 11 10 11 11 11 11 10 10 10 10 10 10 10 10 11 11 11 10 10 10 10 9 9 8 8 8 8 9 9 9 9 9 9 9 10 10 10 10 11 11 11 11 11
8 8 9 9 9 10 10 10 11 11 11 11 11 10 10 10 10 10 10 10 11 11 11 11 10 11 11 11 10 10 10 10 10 10 9 9 9 10 10 10 10 10 11 11 11 11 12 13 13
8 8 9 9 9 10 10 10 10 11 11 11 11 11 11 11 10 10 11 11 11 11 12 12 11 11 11 11 10 11 11 11 10 10 10 10 10 10 10 11 11 11 12 12 12 13 13 14 14
8 8 8 9 9 9 10 10 11 11 11 11 11 11 10 10 10 11 11 11 11 12 12 12 12 12 11 11 12 12 12 11 11 11 11 12 12 12 12 12 12 12 13 13 14 15 15 15 15
8 8 8 9 10 10 10 10 10 11 12 11 11 12 12 11 11 12 12 12 12 11 12 12 12 12 12 12 13 13 13 13 12 12 12 12 12 13 13 13 13 13 14 15 16 16 17 17 17
9 9 9 10 10 11 11 11 11 11 12 12 12 12 12 12 12 12 13 13 13 12 12 12 13 13 13 13 13 14 14 13 13 12 13 13 12 13 14 14 15 15 16 16 16 17 17 18 18
10 10 10 10 11 11 11 12 13 13 13 13 13 13 12 12 13 13 14 14 14 14 14 14 14 14 14 14 14 14 14 14 14 14 13 13 14 14 15 15 16 16 17 17 17 17 18 18 19
11 11 10 11 12 12 12 12 13 13 14 14 14 14 13 13 14 14 14 15 15 15 15 15 15 15 14 15 15 15 15 15 15 15 15 15 15 15 15 16 16 16 17 17 18 18 18 19 19
11 11 11 12 12 13 13 13 13 13 14 15 14 14 14 15 15 15 15 15 15 16 17 17 16 16 16 16 17 16 16 16 16 16 16 16 16 16 16 17 17 18 18 18 18 19 19 20 20
11 12 12 13 13 13 14 14 13 14 15 16 15 14 15 15 16 16 16 16 17 17 17 18 17 17 17 18 18 17 17 17 17 18 18 17 17 17 17 18 18 18 19 19 19 19 20 20 20
12 12 13 13 14 14 14 15 15 16 16 16 16 16 16 16 16 16 17 17 17 18 19 19 19 19 19 19 19 18 18 18 19 19 19 19 18 18 19 19 19 20 20 20 21 21 21 22 22
14 14 14 14 14 15 14 16 16 16 17 17 16 16 16 16 17 17 17 18 18 19 20 20 20 20 20 20 20 20 20 20 21 20 20 20 21 21 20 20 21 21 21 21 22 22 23 23 23
14 14 14 14 15 15 15 16 16 16 17 17 16 17 17 17 18 18 18 18 19 20 20 21 21 21 21 21 21 21 22 22 22 22 21 22 22 22 22 22 22 23 23 23 23 23 24 24 24
14 15 15 15 16 17 17 17 17 17 17 17 17 18 18 18 17 18 18 19 19 19 19 20 21 21 22 22 22 23 23 23 24 24 23 23 23 23 23 23 24 24 24 24 24 25 25 25 24
15 15 15 16 17 17 18 18 18 17 17 17 18 18 18 18 18 17 18 18 18 18 19 19 20 21 22 23 23 23 24 24 24 25 24 24 24 25 25 25 25 25 26 26 26 25 25 25 24
17 17 17 17 17 18 18 18 18 18 17 17 18 18 18 18 17 18 18 19 19 19 19 20 20 21 22 22 23 24 24 25 25 25 25 25 26 26 26 26 26 27 27 28 28 27 26 26 25
17 17 18 18 18 18 18 19 19 18 18 17 17 17 17 17 18 19 19 20 20 20 20 20 20 21 21 22 23 24 25 25 25 25 26 26 27 27 27 27 27 27 28 28 28 27 27 26 25
18 18 19 20 19 19 19 18 20 18 17 17 17 17 17 18 19 20 20 20 21 21 21 21 21 21 21 22 23 24 25 26 26 25 25 26 27 27 28 28 29 28 28 28 28 27 26 26 25
Wind_Direction
202 199 202 203 209 215 215 209 207 205 203 199 195 195 197 197 197 198 201 199 196 196 201 206 212 213 210 206 205 205 208 225 228 230 247 257 266 268 268 264 265 262 260 258 261 259 261 263 262
210 209 212 215 220 221 221 215 211 207 203 205 204 201 200 200 198 197 202 204 203 201 204 209 212 213 211 213 219 216 218 234 233 241 261 275 277 274 269 269 269 272 271 263 263 265 265 266 267
217 216 217 217 220 218 217 210 205 206 203 206 205 202 201 202 201 201 202 205 209 209 213 217 214 212 215 222 226 220 223 235 242 254 265 274 281 281 269 269 270 274 275 269 265 268 268 269 270
222 219 218 216 216 211 209 206 202 198 198 199 202 201 201 201 205 203 203 203 207 214 218 218 222 221 228 230 229 225 229 244 254 263 264 269 275 273 270 270 273 273 273 273 269 269 272 272 273
225 220 218 214 211 208 208 206 201 201 196 198 205 210 207 204 207 204 201 202 204 208 213 219 228 229 233 235 229 227 235 246 257 266 271 279 283 278 274 276 277 275 275 275 274 273 273 272 277
229 223 220 215 208 205 203 203 204 209 209 210 211 216 213 206 204 202 206 210 210 206 212 221 229 237 234 232 233 237 240 249 260 269 277 280 284 280 271 275 275 274 275 273 270 270 270 273 276
232 226 222 218 212 209 210 212 213 214 217 218 217 218 215 207 206 208 211 214 216 213 216 226 235 234 230 233 238 242 247 255 265 274 280 280 280 281 278 278 276 274 274 272 269 270 272 273 275
228 227 225 224 222 220 218 218 218 217 220 221 221 220 216 212 211 213 216 222 222 222 232 238 235 238 239 237 240 246 252 260 270 276 282 281 281 279 286 283 282 280 275 275 276 278 278 278 277
224 225 225 226 226 226 223 220 221 222 222 224 224 224 224 222 221 221 222 225 232 237 240 241 237 236 239 244 246 250 256 262 271 274 276 279 280 282 287 286 283 280 279 276 277 280 282 281 276
222 223 222 224 226 226 225 224 222 223 224 224 226 227 230 230 230 230 230 230 234 239 241 242 244 245 247 248 253 254 258 262 268 271 274 277 280 283 284 282 281 281 281 279 278 281 283 281 280
223 225 227 228 228 228 227 227 225 225 226 226 228 231 235 235 235 236 234 234 238 241 242 245 248 251 252 252 254 255 259 262 263 267 272 277 278 282 283 283 284 285 285 283 284 285 288 286 284
229 232 230 228 228 229 229 229 227 227 228 230 232 235 238 237 239 239 236 235 240 244 248 251 252 253 254 252 253 255 258 260 265 269 271 272 274 279 284 285 285 286 287 286 287 290 289 287 286
233 234 233 234 232 233 234 233 233 231 231 231 234 236 238 237 238 238 238 240 241 245 249 250 252 253 250 248 253 258 261 263 267 270 272 272 274 278 282 283 284 286 288 289 289 290 289 288 287
236 237 236 237 236 235 235 235 237 235 233 231 233 234 237 238 237 239 239 242 244 245 248 250 253 255 252 252 254 259 262 263 265 269 272 272 275 278 281 283 285 286 288 291 292 292 291 290 288
240 240 238 236 237 237 236 237 239 235 234 233 233 236 238 236 238 241 242 244 247 247 249 251 255 258 259 259 260 261 263 265 266 268 270 273 278 280 281 284 286 286 288 290 290 291 290 289 287
239 240 242 239 237 237 237 235 236 234 232 232 234 237 238 237 241 244 246 247 250 251 252 253 256 258 262 262 261 265 263 265 267 269 271 275 277 280 283 285 285 284 286 288 289 290 289 289 287
237 240 243 244 241 239 241 240 237 235 234 233 234 236 237 240 244 245 246 249 251 251 253 256 258 261 261 262 263 265 266 265 268 271 273 276 278 281 283 285 284 285 286 288 289 288 288 288 286
245 244 243 245 245 245 245 242 239 237 236 235 235 238 239 241 243 247 249 251 252 254 255 258 261 262 263 263 265 266 268 269 268 271 273 275 279 282 284 285 287 288 288 288 288 287 288 288 286
248 246 244 247 248 246 245 245 245 242 240 238 240 245 246 245 247 251 252 254 255 255 256 259 263 265 263 264 265 268 268 269 270 270 271 274 278 281 284 286 289 290 289 288 288 289 290 289 287
248 247 247 249 250 251 249 248 248 245 244 244 246 251 253 251 250 252 253 255 256 255 256 258 262 264 263 264 265 268 271 271 272 273 274 276 279 281 284 287 289 289 289 289 289 290 291 291 289
248 248 249 251 253 255 254 249 248 248 248 248 251 254 257 256 255 255 256 258 258 258 257 257 259 261 262 264 267 270 272 275 275 273 275 277 279 282 285 287 287 289 290 291 290 291 291 292 290
249 250 252 254 255 256 255 255 252 252 253 253 255 258 259 259 258 256 256 258 260 262 261 258 258 260 262 264 267 269 271 273 275 275 276 278 278 280 285 287 288 290 291 291 291 291 292 292 291
251 254 255 258 259 260 258 258 257 257 257 257 258 261 260 259 259 258 258 259 261 262 262 262 261 261 262 262 264 266 270 272 275 278 277 277 279 281 285 286 288 289 291 291 290 291 292 293 292
253 256 258 260 262 261 262 262 261 259 261 261 262 262 262 260 258 259 261 262 262 262 263 263 262 261 261 262 263 264 269 273 276 277 278 279 280 283 286 287 288 289 290 291 290 290 291 291 291
253 257 260 262 262 261 261 261 263 261 262 265 265 263 263 263 263 263 263 264 265 264 264 265 265 264 263 263 263 264 268 272 276 278 279 280 281 284 286 287 288 289 292 292 292 291 291 291 290
251 254 257 260 262 263 263 263 265 264 266 267 267 264 263 263 264 265 265 267 269 269 269 268 268 267 266 264 265 266 269 272 275 277 279 280 281 284 285 287 288 289 292 294 293 292 291 291 290
252 254 257 261 263 265 264 266 267 267 268 267 265 264 262 263 264 265 266 267 269 270 270 271 269 268 267 266 267 268 270 273 274 276 277 278 280 282 284 287 289 290 292 293 294 293 292 291 290
254 258 260 261 264 267 268 268 269 270 270 268 267 265 265 264 265 265 267 269 270 271 272 273 273 270 268 267 268 270 271 272 273 276 277 277 280 282 284 287 289 291 292 291 291 291 291 290 288
255 257 259 262 264 267 268 267 268 269 271 270 268 267 265 265 266 266 268 270 271 272 273 275 275 274 272 270 271 272 272 272 273 276 277 278 280 283 285 287 289 290 291 291 290 290 290 288 287
256 257 259 262 265 265 266 266 267 268 269 269 269 268 267 267 267 269 270 271 271 271 273 275 275 275 274 273 274 274 275 274 274 275 277 279 280 283 286 287 289 290 290 290 290 289 288 287 286
Height
5872 5872 5873 5875 5877 5877 5876 5877 5877 5878 5878 5878 5879 5879 5879 5880 5880 5883 5880 5879 5879 5880 5880 5880 5880 5880 5880 5880 5880 5880 5880 5880 5879 5879 5879 5878 5878 5878 5878 5878 5877 5877 5877 5877 5876 5876 5876 5875 5875
5871 5872 5874 5875 5875 5876 5876 5876 5876 5877 5877 5878 5878 5878 5878 5879 5879 5879 5879 5879 5879 5879 5879 5879 5879 5879 5879 5880 5880 5880 5880 5879 5879 5879 5878 5878 5877 5877 5877 5877 5877 5876 5876 5876 5875 5875 5874 5874 5873
5870 5871 5873 5874 5874 5875 5875 5875 5875 5876 5876 5877 5877 5877 5878 5878 5878 5878 5878 5878 5878 5878 5879 5879 5879 5879 5879 5879 5879 5879 5879 5879 5879 5878 5878 5877 5876 5876 5875 5875 5875 5875 5874 5874 5874 5874 5873 5873 5872
5870 5871 5872 5873 5873 5873 5874 5874 5874 5875 5875 5876 5876 5877 5877 5877 5877 5877 5877 5877 5878 5878 5878 5878 5878 5878 5878 5878 5879 5879 5878 5878 5878 5878 5877 5876 5876 5875 5874 5874 5874 5874 5873 5873 5873 5872 5872 5871 5870
5868 5870 5871 5871 5871 5872 5872 5873 5873 5874 5874 5875 5876 5876 5876 5876 5876 5876 5876 5877 5877 5877 5877 5877 5877 5878 5878 5878 5878 5878 5878 5878 5877 5877 5876 5876 5875 5873 5873 5873 5873 5872 5872 5872 5871 5871 5870 5870 5869
5868 5868 5870 5870 5870 5871 5872 5872 5873 5873 5874 5874 5875 5875 5875 5875 5875 5876 5876 5876 5876 5876 5876 5876 5877 5877 5877 5877 5877 5877 5877 5877 5876 5876 5875 5875 5874 5873 5872 5872 5871 5871 5870 5870 5870 5869 5869 5868 5868
5867 5867 5868 5868 5869 5870 5871 5871 5872 5872 5873 5873 5874 5874 5874 5874 5875 5875 5875 5875 5875 5875 5875 5876 5876 5876 5876 5876 5876 5876 5876 5876 5875 5875 5874 5874 5873 5872 5872 5871 5870 5870 5869 5869 5868 5868 5867 5867 5866
5864 5866 5866 5867 5867 5868 5869 5870 5870 5871 5871 5872 5873 5873 5873 5874 5874 5874 5874 5875 5875 5875 5875 5875 5875 5875 5875 5875 5875 5875 5875 5874 5874 5874 5873 5873 5872 5871 5871 5870 5869 5868 5868 5867 5867 5866 5865 5865 5864
5862 5865 5864 5865 5866 5867 5867 5868 5869 5869 5870 5871 5871 5872 5872 5872 5873 5873 5873 5874 5874 5874 5874 5874 5874 5874 5874 5874 5874 5874 5874 5873 5873 5872 5872 5871 5871 5870 5869 5868 5868 5867 5866 5865 5865 5864 5863 5863 5862
5861 5862 5863 5863 5864 5864 5865 5866 5867 5868 5868 5869 5870 5870 5871 5871 5872 5872 5872 5873 5873 5873 5873 5873 5873 5873 5873 5873 5873 5872 5872 5872 5871 5871 5870 5870 5869 5868 5868 5867 5866 5865 5864 5864 5863 5862 5862 5861 5860
5858 5860 5860 5861 5862 5862 5863 5864 5865 5866 5867 5868 5868 5869 5869 5870 5870 5870 5871 5871 5871 5871 5871 5871 5871 5872 5872 5871 5871 5871 5870 5870 5869 5869 5869 5868 5867 5867 5866 5865 5864 5863 5863 5862 5861 5860 5860 5859 5858
5857 5857 5858 5859 5859 5860 5861 5862 5863 5864 5865 5866 5866 5867 5867 5868 5868 5869 5869 5869 5870 5870 5870 5870 5870 5870 5870 5870 5869 5869 5869 5868 5868 5867 5867 5866 5866 5865 5864 5863 5862 5862 5861 5860 5859 5858 5857 5856 5856
5855 5855 5856 5856 5857 5858 5859 5860 5861 5862 5862 5863 5864 5865 5865 5866 5866 5867 5867 5867 5868 5868 5868 5868 5868 5868 5868 5868 5868 5867 5867 5866 5866 5865 5865 5864 5864 5863 5862 5861 5861 5860 5859 5858 5857 5856 5855 5854 5853
5853 5853 5854 5854 5855 5856 5857 5857 5858 5859 5860 5861 5862 5863 5863 5864 5864 5865 5865 5865 5866 5866 5866 5866 5866 5866 5866 5866 5866 5865 5864 5864 5863 5863 5862 5862 5862 5861 5860 5859 5858 5857 5856 5855 5854 5853 5852 5851 5850
5851 5851 5852 5852 5853 5853 5854 5855 5856 5857 5858 5859 5859 5860 5861 5861 5862 5862 5863 5863 5863 5863 5864 5864 5864 5864 5864 5863 5863 5863 5862 5862 5861 5861 5860 5860 5859 5858 5858 5857 5856 5855 5854 5853 5852 5851 5850 5848 5847
5849 5850 5850 5850 5850 5851 5853 5853 5854 5854 5855 5856 5857 5857 5858 5858 5859 5860 5860 5860 5861 5861 5861 5861 5861 5861 5861 5861 5861 5861 5860 5859 5859 5858 5858 5857 5856 5856 5855 5854 5853 5852 5851 5850 5849 5848 5846 5845 5844
5847 5848 5848 5848 5848 5849 5850 5850 5851 5851 5852 5853 5854 5855 5855 5856 5856 5857 5857 5858 5858 5858 5858 5859 5859 5859 5858 5858 5858 5858 5858 5857 5856 5855 5855 5854 5854 5853 5852 5851 5850 5849 5848 5847 5846 5844 5843 5841 5840
5845 5845 5846 5846 5846 5846 5847 5848 5848 5848 5849 5850 5851 5852 5852 5853 5854 5854 5854 5855 5855 5855 5856 5856 5856 5856 5856 5855 5855 5855 5855 5854 5853 5852 5852 5851 5850 5850 5849 5848 5847 5846 5844 5843 5842 5840 5838 5837 5835
5842 5843 5843 5844 5843 5844 5844 5845 5845 5846 5846 5847 5848 5848 5849 5850 5850 5851 5851 5851 5852 5852 5852 5853 5853 5852 5852 5852 5852 5852 5851 5851 5850 5849 5849 5848 5847 5846 5845 5844 5843 5842 5841 5839 5838 5836 5834 5832 5830
5839 5840 5841 5841 5840 5841 5841 5842 5842 5843 5843 5844 5844 5845 5845 5846 5847 5847 5848 5848 5848 5848 5849 5849 5849 5849 5849 5849 5848 5848 5848 5847 5846 5846 5845 5844 5843 5842 5842 5840 5839 5838 5837 5835 5833 5831 5830 5828 5825
5837 5837 5838 5838 5838 5838 5838 5839 5839 5840 5840 5840 5841 5842 5842 5842 5843 5843 5844 5844 5844 5844 5845 5845 5845 5845 5845 5845 5845 5844 5844 5843 5843 5842 5841 5841 5840 5839 5837 5836 5835 5834 5832 5830 5828 5827 5825 5823 5820
5833 5834 5834 5834 5834 5834 5835 5835 5836 5836 5836 5836 5837 5838 5838 5838 5839 5839 5839 5840 5840 5840 5840 5840 5841 5841 5841 5841 5841 5840 5840 5839 5838 5838 5837 5836 5835 5834 5833 5832 5831 5829 5827 5826 5824 5822 5820 5818 5815
5830 5830 5830 5830 5830 5831 5831 5831 5832 5831 5832 5832 5833 5833 5833 5834 5834 5834 5835 5835 5835 5835 5835 5836 5836 5836 5836 5836 5836 5836 5835 5835 5834 5833 5832 5832 5831 5830 5829 5827 5826 5824 5822 5820 5818 5816 5814 5812 5809
5826 5826 5826 5826 5826 5827 5827 5827 5827 5827 5828 5828 5828 5828 5829 5829 5829 5829 5830 5830 5830 5830 5830 5830 5830 5830 5830 5831 5831 5831 5830 5830 5829 5828 5828 5827 5826 5825 5823 5822 5820 5819 5817 5815 5813 5811 5808 5806 5803
5821 5822 5823 5822 5822 5823 5823 5822 5824 5823 5823 5823 5823 5823 5823 5824 5824 5824 5824 5824 5824 5824 5824 5824 5824 5824 5825 5825 5825 5825 5825 5825 5824 5823 5822 5821 5821 5819 5818 5817 5815 5813 5811 5809 5807 5804 5802 5799 5797
5817 5818 5819 5819 5819 5818 5818 5818 5819 5818 5818 5818 5818 5818 5818 5818 5819 5819 5819 5819 5818 5818 5818 5818 5818 5818 5818 5819 5819 5819 5819 5819 5818 5817 5817 5816 5815 5814 5812 5811 5809 5807 5805 5802 5800 5798 5795 5792 5790
5812 5813 5814 5814 5814 5813 5813 5814 5813 5813 5813 5813 5813 5813 5813 5813 5813 5814 5814 5814 5813 5813 5813 5813 5812 5812 5812 5812 5812 5812 5812 5812 5812 5811 5810 5810 5808 5807 5806 5804 5802 5800 5798 5796 5793 5791 5788 5786 5783
5808 5808 5809 5808 5808 5808 5808 5808 5809 5808 5808 5808 5807 5807 5807 5808 5808 5808 5809 5809 5808 5808 5808 5807 5807 5806 5806 5806 5806 5805 5805 5805 5805 5804 5803 5803 5802 5800 5799 5798 5796 5793 5791 5789 5786 5784 5781 5779 5776
5802 5803 5803 5803 5803 5804 5804 5806 5803 5803 5803 5802 5802 5802 5802 5803 5803 5803 5803 5803 5803 5803 5802 5802 5801 5800 5800 5799 5799 5799 5798 5798 5798 5797 5796 5795 5795 5793 5792 5790 5788 5786 5784 5781 5779 5776 5774 5771 5769
5796 5797 5797 5798 5798 5798 5798 5801 5797 5797 5797 5797 5797 5797 5797 5797 5798 5797 5797 5797 5797 5797 5796 5796 5795 5795 5794 5793 5792 5792 5791 5791 5790 5790 5789 5788 5787 5786 5784 5783 5781 5778 5776 5774 5771 5769 5767 5764 5762